Location: Newark
(14.1000°N, 87.2167°W)
Time: 11:07:24
(UTC+00:00)

Tiangong - Pass Details

Date: 23 September 2021
Orbit: 382 x 385 km, 41.5° (Epoch: 18 October)

Event Time Altitude Azimuth Distance (km) Brightness Sun altitude
Exits shadow 09:56:54 16° 35° (NE) 1,082 3.8 -25.3°
Drops below altitude 10° 09:57:40 10° 39° (NE) 1,382 4.4 -25.1°
Sets 09:59:45 0° 43° (NE) 2,233 5.7 -24.6°
